sat.trackr.live / text

‹ back to catalog

STARLINK-37390

NORAD 68782 · 2026-086S

PAYLOAD ACTIVE UNKNOWN

§ Identity

Operator
Country
US
Launch date
2026-04-19
Launch site
AFWTR
Launch vehicle
Mass (kg)
RCS (m²)

Purposes: comms

External: N2YO · Heavens-Above · Gunter

§ Orbital elements

Epoch: 2026-05-25T04:00:03.998880Z

Period
92.26 min
Inclination
97.2849°
Eccentricity
0.0001336
Mean motion
15.60862058 rev/d
Perigee alt
384.3 km
Apogee alt
386.1 km
Semi-major
6,763.3 km
B*
-2.5868e-2
RAAN
182.0168°
Arg perigee
85.3348°
Mean anomaly
243.8042°
Rev number
607

§ Raw data

STARLINK-373901 68782U 26086S   26145.16671295 -.01907184  00000+0 -25868-1 0  99992 68782  97.2849 182.0168 0001336  85.3348 243.8042 15.60862058  6079

JSON: /api/v1/satellites/68782 · /tle

For live sub-satellite position, see the globe view (requires WebGL).

§ Visibility from observer

Set your observer location to see the next 7 days of passes ≥ 10°. The values pass through the URL so the page stays shareable.

No JS? Fill the form by hand. The geolocation button needs JavaScript.